This is the latest recevied weather packets stored in our database for station/object HB9UQS-13. If no packets are shown the sender has not sent any weather packets the latest 10 day(s).
| Time | Temp. | Humidity | Pressure | Rain* | Wind** | Luminosity | Snow |
|---|---|---|---|---|---|---|---|
| 1778089051 | 10° C | 82% | 924.6 hPa | 0 mm | - | 0 W/m² | - |
| 1778087250 | 9.44° C | 84% | 924.3 hPa | 0 mm | - | 0 W/m² | - |
| 1778085451 | 9.44° C | 85% | 924.3 hPa | 0 mm | - | 0 W/m² | - |
| 1778083651 | 9.44° C | 83% | 924.2 hPa | 0 mm | - | 0 W/m² | - |
| 1778081850 | 9.44° C | 87% | 924.3 hPa | 0 mm | - | 0 W/m² | - |
| 1778080050 | 8.89° C | 88% | 924.4 hPa | 0 mm | - | 0 W/m² | - |
| 1778078250 | 8.89° C | 92% | 924.2 hPa | 0 mm | - | 0 W/m² | - |
| 1778076451 | 8.89° C | 89% | 924.1 hPa | 0 mm | - | 0 W/m² | - |
| 1778074650 | 8.89° C | 91% | 924.3 hPa | 0 mm | - | 0 W/m² | - |
| 1778072851 | 8.89° C | 90% | 923.9 hPa | 0 mm | - | 0 W/m² | - |
| 1778071050 | 8.89° C | 92% | 923.9 hPa | 0 mm | - | 0 W/m² | - |
| 1778069250 | 8.33° C | 93% | 923.5 hPa | 0 mm | - | 0 W/m² | - |
| 1778067450 | 8.33° C | 94% | 923.4 hPa | 0 mm | - | 0 W/m² | - |
| 1778065650 | 7.78° C | 95% | 923.3 hPa | 0 mm | - | 0 W/m² | - |
| 1778063850 | 8.33° C | 95% | 923.4 hPa | 0 mm | - | 0 W/m² | - |
| 1778062050 | 8.33° C | 96% | 923.1 hPa | 0 mm | - | 0 W/m² | - |
| 1778060250 | 8.89° C | 95% | 922.7 hPa | 0 mm | - | 0 W/m² | - |
| 1778058450 | 9.44° C | 94% | 922.4 hPa | 0 mm | - | 0 W/m² | - |
| 1778056650 | 9.44° C | 93% | 922 hPa | 0 mm | - | 0 W/m² | - |
| 1778054851 | 10° C | 92% | 921.6 hPa | 0 mm | - | 0 W/m² | - |
| 1778053050 | 9.44° C | 93% | 921.5 hPa | 0 mm | - | 0 W/m² | - |
| 1778051250 | 8.89° C | 96% | 921.5 hPa | 0 mm | - | 0 W/m² | - |
| 1778049450 | 8.89° C | 98% | 921.7 hPa | 0 mm | - | 0 W/m² | - |
| 1778047650 | 8.33° C | 97% | 921.7 hPa | 0 mm | - | 0 W/m² | - |
| 1778045851 | 6.11° C | 96% | 921.7 hPa | 0 mm | - | 0 W/m² | - |
* Rain latest hour (hover to see other rain measurements)
** Current wind speed in m/s (hover to see current wind gust speed)